Find Starlink 33830

NORAD ID: 63587 Int'l Des: 2025-076 Owner: SPXS Country: US Constellation: starlink operational
LEOCIRCULAR

实时位置

正在加载3D地球...

关于 Starlink 33830

正在加载描述...

即将过境

Passes for default location (London). Set your location on the main map for personalized predictions.

高度历史

Loading altitude history...

两行轨道根数

1 63587U 25076U 26126.64293113 .00012418 00000-0 46026-3 0 9992
2 63587 42.9992 354.3982 0000982 260.9430 99.1310 15.27562678 60696
Epoch: May 6, 2026 • Age: 9 hours

当前状态

高度 482.2 km
速度 7.63 km/s
星下点 9.40°N, 62.65°W
发射日期 Apr 14, 2025
运行时间 1 years
类型 internet

技术详情

分类 Payload
质量 575.00 kg
干质量 530.00 kg
总质量 575.00 kg
长度 0.30 m
直径 4.10 m
跨度 29.00 m
形状 Box + pan
制造商 SPXS
平台类型 Starlink V2MO
阶段状态 In Orbit
所有者/国家 SPXS/US

Most Searched